sat.trackr.live / text

‹ back to catalog

STARLINK-35341

NORAD 66027 · 2025-232Y

PAYLOAD ACTIVE UNKNOWN

§ Identity

Operator
Country
US
Launch date
2025-10-16
Launch site
AFETR
Launch vehicle
Mass (kg)
RCS (m²)

Purposes: comms

External: N2YO · Heavens-Above · Gunter

§ Orbital elements

Epoch: 2026-09-20T00:29:03.984864Z

Period
93.85 min
Inclination
53.1578°
Eccentricity
0.0001193
Mean motion
15.34398336 rev/d
Perigee alt
461.9 km
Apogee alt
463.5 km
Semi-major
6,840.8 km
B*
4.5949e-4
RAAN
278.0479°
Arg perigee
88.6445°
Mean anomaly
271.4694°
Rev number
5,323

§ Raw data

STARLINK-353411 66027U 25232Y   26263.02018501  .00015179  00000+0  45949-3 0  99972 66027  53.1578 278.0479 0001193  88.6445 271.4694 15.34398336 53239

JSON: /api/v1/satellites/66027 · /tle

For live sub-satellite position, see the globe view (requires WebGL).

§ Visibility from observer

Set your observer location to see the next 7 days of passes ≥ 10°. The values pass through the URL so the page stays shareable.

No JS? Fill the form by hand. The geolocation button needs JavaScript.